Date,TemperatureHighF,TemperatureAvgF,TemperatureLowF,DewpointHighF,DewpointAvgF,DewpointLowF,HumidityHigh,HumidityAvg,HumidityLow,PressureMaxIn,PressureMinIn,WindSpeedMaxMPH,WindSpeedAvgMPH,GustSpeedMaxMPH,PrecipitationSumIn
2013-10-1,77.5,66.7,50.2,54.0,47.3,39.0,76,52,26,29.98,29.55,12,1,14,0.00
2013-10-2,77.5,59.2,43.5,55.2,45.1,39.7,91,64,31,30.04,29.80,12,0,13,0.16
2013-10-3,59.4,58.4,57.2,57.6,56.2,54.3,95,92,89,29.91,29.78,7,-14,11,0.44
2013-10-4,58.3,56.9,55.6,56.1,54.7,53.2,94,92,90,29.97,29.82,5,0,7,0.21
2013-10-5,59.7,54.0,43.5,56.5,49.2,40.1,94,84,68,29.86,29.73,7,0,12,0.25
2013-10-6,52.5,46.5,41.2,50.5,44.2,38.8,93,92,88,29.85,29.69,5,0,6,0.02
2013-10-7,68.4,51.2,41.5,49.6,43.7,39.6,94,79,43,29.98,29.83,5,0,7,0.01
2013-10-8,77.7,61.6,46.8,53.2,47.7,43.2,88,63,38,29.98,29.80,19,1,19,0.00
2013-10-9,79.3,65.9,56.1,56.8,51.3,48.2,75,60,44,30.02,29.89,13,1,15,0.00
2013-10-10,80.1,62.2,48.4,58.8,50.6,44.4,87,68,44,30.01,29.85,8,0,11,0.00
2013-10-11,74.8,65.7,56.5,61.3,55.2,50.7,84,70,53,29.85,29.59,13,1,21,0.09
2013-10-12,60.3,51.4,42.3,55.4,43.5,37.9,85,75,56,30.19,29.68,12,1,15,0.09
2013-10-13,63.3,46.9,36.0,44.2,37.6,32.0,89,73,39,30.45,30.19,5,0,5,0.00
2013-10-14,54.0,47.5,38.7,46.6,40.7,35.1,89,78,60,30.40,29.94,9,0,11,0.49
2013-10-15,53.4,49.9,46.6,51.4,47.7,44.6,94,92,86,29.97,29.66,9,0,14,1.27
2013-10-16,54.7,45.6,36.9,44.6,40.7,32.9,93,84,59,29.97,29.82,6,0,9,0.00
2013-10-17,61.2,46.0,36.0,45.3,39.7,32.5,91,80,49,29.91,29.76,9,0,12,0.06
2013-10-18,55.2,43.8,38.1,40.8,36.8,32.2,97,78,43,29.99,29.85,7,0,10,0.12
2013-10-19,47.5,40.1,33.6,40.3,35.3,29.3,89,83,73,29.85,29.69,12,0,12,0.02
2013-10-20,47.3,37.9,30.7,42.3,33.9,27.0,92,85,75,29.89,29.62,11,0,11,0.06
2013-10-21,38.8,35.1,27.7,33.8,24.8,22.1,82,66,54,29.99,29.88,15,1,18,0.00
2013-10-22,40.1,32.9,23.9,33.8,27.5,20.3,90,81,67,30.06,29.99,4,0,6,0.00
2013-10-23,38.1,34.9,31.8,31.6,26.7,21.7,87,73,58,30.13,30.02,10,0,14,0.01
2013-10-24,43.0,37.8,33.4,32.0,27.7,22.5,83,67,58,30.34,30.13,12,0,14,0.00
2013-10-25,57.4,43.7,27.1,42.4,34.0,23.0,88,70,53,30.35,29.78,15,1,15,0.00
2013-10-26,52.0,43.9,37.6,41.9,31.9,28.8,73,63,53,30.12,29.78,11,1,13,0.00
2013-10-27,58.8,42.9,28.9,38.3,31.1,23.9,89,65,43,30.14,29.82,11,0,12,0.00
2013-10-28,45.0,37.9,31.3,31.6,25.9,21.4,76,62,47,30.45,30.13,6,0,6,0.00
2013-10-29,42.4,38.0,31.3,35.8,29.5,21.9,83,71,67,30.43,30.10,4,0,6,0.03
2013-10-30,49.6,45.2,40.3,47.7,42.5,35.6,93,90,83,30.10,29.66,3,0,4,0.11
2013-10-31,49.8,43.1,40.3,47.8,41.0,37.8,97,92,90,29.66,29.41,7,0,9,0.04